#timestamp,LO_Frequency,Hit 
1498528815.6,286047039.2,N
1498528835.4,286047045.9,N
1498528855.3,286047043.4,N
1498528875.1,286047043.1,N
1498528876.0,286047043.1,N
1498528895.8,286047043.3,N
1498528915.6,286047041.7,N
1498528935.5,286047041.7,N
1498528955.3,286047042.4,N
1498528975.1,286047040.3,N
1498528995.9,286047040.1,N
1498529015.7,286047039.2,N
1498529035.5,286047039.5,N
1498529055.4,286047040.0,N
1498529075.2,286047040.8,N
1498529095.0,286047042.8,N
1498529095.9,286047042.8,N
1498529115.8,286047041.5,N
1498529135.6,286047039.7,N
1498529155.4,286047040.5,N
1498529175.3,286047040.3,N
1498529195.1,286047039.9,N
1498529196.0,286047039.9,N
1498529215.8,286047040.1,N
1498529235.6,286047042.6,N
1498529255.5,286047042.8,N
1498529275.3,286047042.4,N
1498529295.1,286047039.9,N
1498529315.9,286047039.8,N
1498529335.7,286047042.4,N
1498529355.5,286047043.9,N
1498529375.4,286047043.2,N
1498529395.2,286047043.6,N
1498529415.0,286047044.0,N
1498529415.9,286047044.0,N
1498529435.8,286047042.1,N
1498529455.6,286047042.3,N
1498529475.4,286047041.8,N
1498529495.3,286047041.7,N
1498529515.1,286047042.0,N
1498529516.0,286047042.0,N
1498529535.8,286047042.0,N
1498529555.6,286047041.7,N
1498529575.5,286047042.3,N
1498529595.3,286047041.5,N
1498529615.1,286047039.8,N
1498529635.9,286047041.9,N
1498529655.7,286047042.5,N
1498529675.5,286047041.5,N
1498529695.4,286047042.3,N
1498529715.2,286047043.8,N
1498529735.0,286047045.8,N
1498529735.9,286047045.8,N
1498529755.8,286047046.0,N
1498529775.6,286047044.3,N
1498529795.4,286047043.4,N
1498529815.3,286047041.9,N
1498529835.1,286047045.5,N
1498529836.0,286047045.5,N
1498529855.8,286047045.1,N
1498529875.7,286047047.2,N
1498529895.5,286047047.4,N
1498529915.3,286047045.7,N
1498529935.1,286047045.4,N
1498529955.9,286047043.6,N
1498529975.7,286047045.0,N
1498529995.5,286047050.0,N
1498530015.4,286047053.1,N
1498530035.2,286047052.1,N
1498530055.0,286047051.5,N
1498530055.9,286047051.5,N
1498530075.8,286047051.4,N
1498530095.6,286047056.6,N
1498530115.4,286047054.8,N
1498530135.3,286047054.6,N
1498530155.1,286047055.6,N
1498530156.0,286047055.6,N
1498530175.8,286047052.7,N
1498530195.7,286047052.1,N
1498530215.5,286047049.6,N
1498530235.3,286047050.3,N
1498530255.1,286047046.9,N
1498530275.9,286047046.7,N
1498530295.7,286047048.9,N
1498530315.5,286047050.8,N
1498530335.4,286047046.9,N
1498530355.2,286047046.3,N
1498530375.0,286047047.5,N
1498530375.9,286047047.5,N
1498530395.8,286047046.4,N
1498530415.6,286047048.0,N
1498530435.4,286047047.2,N
1498530455.3,286047046.8,N
1498530475.1,286047049.0,N
1498530476.0,286047049.0,N
1498530495.8,286047050.6,N
1498530515.7,286047050.0,N
1498530535.5,286047050.9,N
1498530555.3,286047049.7,N
1498530575.2,286047048.5,N
1498530595.9,286047047.1,N
1498530615.7,286047044.5,N
1498530635.5,286047043.3,N
1498530655.4,286047044.9,N
1498530675.2,286047046.2,N
1498530695.0,286047049.6,N
1498530695.9,286047049.6,N
1498530715.8,286047053.7,N
1498530735.6,286047053.6,N
1498530755.4,286047053.8,N
1498530775.3,286047053.5,N
1498530795.1,286047056.5,N
1498530815.8,286047053.1,N
1498530835.7,286047052.4,N
1498530855.5,286047050.5,N
1498530875.3,286047049.3,N
1498530895.2,286047053.1,N
1498530915.9,286047052.7,N
1498530935.7,286047054.3,N
1498530955.6,286047055.4,N
1498530975.4,286047052.1,N
1498530995.2,286047050.3,N
1498531015.0,286047049.5,N
1498531015.9,286047049.5,N
1498531035.8,286047056.4,N
1498531055.6,286047060.2,N
1498531075.4,286047054.3,N
1498531095.3,286047054.3,N
1498531115.1,286047056.3,N
1498531135.8,286047052.7,N
1498531155.7,286047049.4,N
1498531175.5,286047051.7,N
1498531195.3,286047051.6,N
1498531215.2,286047057.8,N
1498531235.9,286047061.6,Y
1498531255.7,286047029.0,N
1498531275.6,286047027.7,N
1498531295.4,286047029.8,N
1498531315.2,286047030.0,N
1498531335.1,286047027.3,N
1498531336.0,286047027.3,N
1498531355.8,286047028.3,N
1498531375.6,286047025.8,N
1498531395.5,286047027.2,N
1498531415.3,286047027.3,N
1498531435.1,286047030.5,N
1498531455.8,286047031.4,N
1498531475.7,286047028.4,N
1498531495.5,286047026.6,N
1498531515.3,286047028.3,N
1498531535.2,286047030.0,N
1498531555.9,286047024.1,N
1498531575.7,286047029.9,N
1498531595.6,286047029.0,N
1498531615.4,286047028.8,N
1498531635.2,286047028.3,N
1498531655.1,286047025.9,N
1498531656.0,286047025.9,N
1498531675.8,286047025.3,N
1498531695.6,286047027.2,N
1498531715.5,286047026.9,N
1498531735.3,286047030.5,N
1498531755.1,286047028.6,N
1498531775.8,286047030.5,N
1498531795.7,286047030.4,N
1498531815.5,286047029.2,N
1498531835.3,286047030.8,N
1498531855.2,286047031.8,N
1498531875.0,286047033.1,N
1498531875.9,286047033.1,N
1498531895.7,286047030.2,N
1498531915.6,286047034.8,N
1498531935.4,286047035.3,N
1498531955.2,286047034.2,N
1498531975.1,286047030.1,N
1498531976.0,286047030.1,N
1498531995.8,286047031.8,N
1498532015.6,286047034.0,N
1498532035.5,286047033.7,N
1498532055.3,286047034.8,N
1498532075.1,286047029.1,N
1498532095.8,286047030.8,N
1498532115.7,286047031.1,N
1498532135.5,286047030.7,N
1498532155.3,286047032.6,N
1498532175.2,286047033.1,N
1498532195.0,286047028.5,N
1498532195.9,286047028.5,N
1498532215.7,286047029.2,N
1498532235.6,286047031.3,N
1498532255.4,286047031.5,N
1498532275.2,286047033.5,N
1498532295.1,286047033.9,N
1498532296.0,286047033.9,N
1498532315.8,286047034.0,N
1498532335.6,286047030.5,N
1498532355.5,286047031.1,N
1498532375.3,286047033.2,N
1498532395.1,286047032.7,N
